Flag for Austria Weather past 2 weeks in Gänserndorf, Lower Austria, Austria

Now
80 °F

Scattered clouds.


Feels Like: 82 °F
Forecast: 67 / 95 °F
Wind: 8 mph from Southeast

Location: Wien / Schwechat-Flughafen

Current Time: Aug 30, 2015 at 10:50:57 AM

Latest Report: Aug 30, 2015 at 10:00 AM


Visibility: 17 mi

Pressure: 30.10 "Hg

Humidity: 58%

Dew point: 64 °F

Location of GänserndorfLocation

Historic Weather in Gänserndorf — Graph

°F

Gänserndorf temperature yesterday

Maximum temperature yesterday: 89 °F (at 5:00 PM)
Minimum temperature yesterday: 65 °F (at 6:00 AM)
Average temperature yesterday: 76 °F

Past Weeks' High & Low Weather Summary

 TemperatureHumidityPressure
High89 °F (Aug 29, 5:00 PM)99% (Aug 28, 7:00 AM)30.24 "Hg (Aug 28, 7:00 AM)
Low51 °F (Aug 26, 5:00 AM)33% (Aug 26, 4:00 PM)29.69 "Hg (Aug 16, 7:00 PM)
Average69 °F71%30.00 "Hg
* Reported Aug 15 9:00 AM — Aug 30 9:00 AM, Gänserndorf, Weather by CustomWeather, © 2015

Note: Actual official high and low records may vary slightly from our data, if they occured in-between our weather recording intervals... More about our weather records

Advertising

Gänserndorf weather history for previous 24 hours

 ConditionsComfort  
Time TempWeatherWind HumidityBarometerVisibility
9:00 AM
Sun, Aug 30
76 °FScattered clouds.9 mph66%30.09 "Hg14 mi
8:00 AM72 °FScattered clouds.6 mph74%30.11 "Hg16 mi
7:00 AM70 °FPartly sunny.7 mph80%30.11 "Hg15 mi
6:00 AM70 °FPassing clouds.6 mph77%30.11 "Hg18 mi
5:00 AM68 °FPassing clouds.5 mph81%30.12 "Hg16 mi
4:00 AM70 °FPassing clouds.3 mph75%30.12 "Hg19 mi
3:00 AM71 °FClear.N/A75%30.13 "Hg25 mi
2:00 AM68 °FClear.N/A78%30.14 "Hg19 mi
1:00 AM72 °FClear.N/A69%30.15 "Hg25 mi
12:00 AM74 °FClear.N/A67%N/A22 mi
11:00 PM
Sat, Aug 29
72 °FClear.5 mph74%30.16 "Hg25 mi
10:00 PM75 °FPassing clouds.N/A66%N/A22 mi
9:00 PM80 °FPassing clouds.N/A54%30.14 "Hg22 mi
8:00 PM83 °FPassing clouds.N/A46%30.13 "Hg25 mi
7:00 PM86 °FPassing clouds.N/A48%30.12 "Hg4 mi
6:00 PM89 °FPassing clouds.5 mph39%30.13 "Hg17 mi
5:00 PM89 °FPassing clouds.N/A41%30.14 "Hg18 mi
4:00 PM89 °FPassing clouds.N/A40%30.15 "Hg13 mi
2:00 PM87 °FPassing clouds.N/A49%30.18 "Hg12 mi
11:00 AM80 °FSunny.3 mph59%30.20 "Hg12 mi
10:00 AM77 °FPassing clouds.N/A68%30.20 "Hg9 mi
Weather by CustomWeather, © 2015

See weather overviewHow to use our weather pages